| time (UTC) | temp C | wind direction | speed KPH | gust KPH | rain 1hr cm | rain 24hr cm | rain mn cm | humidity % | barometer mb |
| 20260508082657 | 19 | 82 | 11.3 | 17.7 | 0.00 | 0.00 | 0.00 | 87 | 1013.6 |
| 20260508082017 | -17 | 82 | 9.7 | 14.5 | 0.00 | 0.00 | 0.00 | ||
| 20260508081122 | 19 | 82 | 9.7 | 14.5 | 0.00 | 0.00 | 0.00 | 88 | 1013.8 |
| 20260508080442 | -17 | 81 | 9.7 | 6.4 | 0.00 | 0.00 | 0.00 | ||
| 20260508074800 | 20 | 82 | 11.3 | 17.7 | 0.00 | 0.00 | 0.00 | 88 | 1014.2 |
| 20260508074120 | -17 | 82 | 9.7 | 11.3 | 0.00 | 0.00 | 0.00 | ||
| 20260508073224 | 20 | 83 | 6.4 | 12.9 | 0.00 | 0.00 | 0.00 | 88 | 1014.0 |
| 20260508072544 | -17 | 83 | 6.4 | 6.4 | 0.00 | 0.00 | 0.00 | ||
| 20260508071651 | 20 | 82 | 9.7 | 14.5 | 0.00 | 0.00 | 0.00 | 88 | 1014.0 |
| 20260508071011 | 20 | 82 | 8.0 | 14.5 | 0.00 | 0.00 | 0.00 | 88 | 1014.2 |
| 20260508070331 | -17 | 82 | 11.3 | 11.3 | 0.00 | 0.00 | 0.00 | ||
| 20260508065906 | 20 | 82 | 8.0 | 16.1 | 0.00 | 0.00 | 0.00 | 88 | 1014.2 |
| 20260508065230 | 20 | 82 | 8.0 | 16.1 | 0.00 | 0.00 | 0.00 | 88 | 1014.4 |
| 20260508064546 | 20 | 82 | 9.7 | 16.1 | 0.00 | 0.00 | 0.00 | 88 | 1014.3 |
| 20260508063906 | -17 | 82 | 12.9 | 12.9 | 0.00 | 0.00 | 0.00 | ||
| 20260508063013 | 20 | 82 | 9.7 | 19.3 | 0.00 | 0.00 | 0.00 | 88 | 1014.4 |
| 20260508062333 | 20 | 82 | 8.0 | 14.5 | 0.00 | 0.00 | 0.00 | 88 | 1014.5 |
| 20260508061653 | 20 | 82 | 9.7 | 14.5 | 0.00 | 0.00 | 0.00 | 88 | 1014.6 |
| 20260508061013 | 20 | 82 | 6.4 | 9.7 | 0.00 | 0.00 | 0.00 | 88 | 1014.6 |
| 20260508060333 | 20 | 81 | 3.2 | 14.5 | 0.00 | 0.00 | 0.00 | 88 | 1014.7 |
| 20260508055653 | -17 | 82 | 8.0 | 8.0 | 0.00 | 0.00 | 0.00 | ||
| 20260508054759 | -17 | 83 | 4.8 | 4.8 | 0.00 | 0.00 | 0.00 | ||
| 20260508053618 | 20 | 17 | 1.6 | 4.8 | 0.00 | 0.00 | 0.00 | 87 | 1014.5 |
| 20260508052938 | 20 | 46 | 1.6 | 6.4 | 0.00 | 0.00 | 0.00 | 87 | 1014.5 |
| 20260508052258 | -17 | 64 | 1.6 | 0.0 | 0.00 | 0.00 | 0.00 | ||
| 20260508051151 | -17 | 60 | 1.6 | 0.0 | 0.00 | 0.00 | 0.00 | ||
| 20260508050256 | -17 | 80 | 4.8 | 8.0 | 0.00 | 0.00 | 0.00 | ||
| 20260508045119 | 20 | 82 | 6.4 | 11.3 | 0.00 | 0.00 | 0.00 | 86 | 1014.9 |
| 20260508044439 | 20 | 80 | 4.8 | 14.5 | 0.00 | 0.00 | 0.00 | 86 | 1014.9 |
| 20260508043759 | -17 | 83 | 4.8 | 6.4 | 0.00 | 0.00 | 0.00 | ||
| 20260508042905 | -17 | 82 | 6.4 | 4.8 | 0.00 | 0.00 | 0.00 | ||
| 20260508042011 | -17 | 80 | 9.7 | 12.9 | 0.00 | 0.00 | 0.00 | ||
| 20260508041116 | -17 | 82 | 9.7 | 9.7 | 0.00 | 0.00 | 0.00 | ||
| 20260508035438 | -17 | 82 | 9.7 | 8.0 | 0.00 | 0.00 | 0.00 | ||
| 20260508034545 | -17 | 81 | 8.0 | 11.3 | 0.00 | 0.00 | 0.00 | ||
| 20260508033338 | -17 | 82 | 9.7 | 14.5 | 0.00 | 0.00 | 0.00 | ||
| 20260508032444 | 21 | 82 | 9.7 | 17.7 | 0.00 | 0.00 | 0.00 | 85 | 1015.5 |
| 20260508031804 | 21 | 81 | 12.9 | 17.7 | 0.00 | 0.00 | 0.00 | 84 | 1015.6 |
| 20260508031125 | -17 | 81 | 14.5 | 9.7 | 0.00 | 0.00 | 0.00 | ||
| 20260508030230 | -17 | 82 | 9.7 | 8.0 | 0.00 | 0.00 | 0.00 | ||
| 20260508025336 | 21 | 82 | 12.9 | 22.5 | 0.00 | 0.00 | 0.00 | 84 | 1015.3 |
| 20260508024656 | 21 | 81 | 16.1 | 22.5 | 0.00 | 0.00 | 0.00 | 84 | 1015.1 |
| 20260508024016 | -17 | 82 | 17.7 | 14.5 | 0.00 | 0.00 | 0.00 | ||
| 20260508023122 | -17 | 81 | 11.3 | 19.3 | 0.00 | 0.00 | 0.00 | ||
| 20260508022227 | -17 | 82 | 12.9 | 11.3 | 0.00 | 0.00 | 0.00 | ||
| 20260508021332 | -17 | 82 | 8.0 | 9.7 | 0.00 | 0.00 | 0.00 | ||
| 20260508020437 | -17 | 81 | 12.9 | 9.7 | 0.00 | 0.00 | 0.00 | ||
| 20260508015542 | 22 | 82 | 12.9 | 27.4 | 0.00 | 0.00 | 0.00 | 83 | 1014.6 |
| 20260508014902 | 22 | 82 | 17.7 | 25.7 | 0.00 | 0.00 | 0.00 | 83 | 1014.4 |
| 20260508014222 | -17 | 82 | 11.3 | 9.7 | 0.00 | 0.00 | 0.00 | ||
| 20260508013326 | 23 | 82 | 12.9 | 20.9 | 0.00 | 0.00 | 0.00 | 82 | 1014.5 |
| 20260508012646 | 23 | 82 | 11.3 | 17.7 | 0.00 | 0.00 | 0.00 | 82 | 1014.6 |
| 20260508012006 | 23 | 82 | 11.3 | 17.7 | 0.00 | 0.00 | 0.00 | 81 | 1014.6 |
| 20260508011326 | -17 | 82 | 9.7 | 14.5 | 0.00 | 0.00 | 0.00 | ||
| 20260508010432 | -17 | 82 | 6.4 | 6.4 | 0.00 | 0.00 | 0.00 | ||
| 20260508005437 | 23 | 83 | 6.4 | 11.3 | 0.00 | 0.00 | 0.00 | 80 | 1014.3 |
| 20260508004757 | 23 | 82 | 6.4 | 11.3 | 0.00 | 0.00 | 0.00 | 80 | 1014.2 |
| 20260508004117 | 23 | 82 | 6.4 | 17.7 | 0.00 | 0.00 | 0.00 | 80 | 1014.0 |
| 20260508003437 | 23 | 82 | 8.0 | 17.7 | 0.00 | 0.00 | 0.00 | 80 | 1013.7 |
| 20260508002757 | 23 | 82 | 11.3 | 16.1 | 0.00 | 0.00 | 0.00 | 79 | 1013.6 |
| 20260508002117 | 23 | 82 | 11.3 | 16.1 | 0.00 | 0.00 | 0.00 | 79 | 1013.8 |
| 20260508001437 | -17 | 81 | 16.1 | 9.7 | 0.00 | 0.00 | 0.00 | ||
| 20260508000541 | 23 | 82 | 16.1 | 24.1 | 0.00 | 0.00 | 0.00 | 79 | 1013.6 |
| 20260507235901 | -17 | 82 | 11.3 | 14.5 | 0.00 | 0.00 | 0.00 | ||
| 20260507234408 | 24 | 82 | 11.3 | 20.9 | 0.00 | 0.00 | 0.00 | 79 | 1013.6 |
| 20260507233728 | -17 | 82 | 16.1 | 9.7 | 0.00 | 0.00 | 0.00 | ||
| 20260507232400 | -17 | 82 | 16.1 | 17.7 | 0.00 | 0.00 | 0.00 | ||
| 20260507231251 | -17 | 82 | 14.5 | 14.5 | 0.00 | 0.00 | 0.00 | ||
| 20260507230358 | 24 | 82 | 14.5 | 22.5 | 0.00 | 0.00 | 0.00 | 78 | 1013.8 |
| 20260507225718 | -17 | 82 | 14.5 | 16.1 | 0.00 | 0.00 | 0.00 | ||
| 20260507223647 | -17 | 82 | 16.1 | 19.3 | 0.00 | 0.00 | 0.00 | ||
| 20260507222752 | -17 | 82 | 12.9 | 17.7 | 0.00 | 0.00 | 0.00 | ||
| 20260507221859 | -17 | 82 | 19.3 | 17.7 | 0.00 | 0.00 | 0.00 | ||
| 20260507220719 | 25 | 82 | 16.1 | 24.1 | 0.00 | 0.00 | 0.00 | 76 | 1013.8 |
| 20260507220039 | -17 | 82 | 12.9 | 14.5 | 0.00 | 0.00 | 0.00 | ||
| 20260507215142 | 25 | 81 | 14.5 | 24.1 | 0.00 | 0.00 | 0.00 | 77 | 1013.4 |
| 20260507214502 | -17 | 82 | 11.3 | 12.9 | 0.00 | 0.00 | 0.00 | ||
| 20260507213606 | 26 | 81 | 12.9 | 24.1 | 0.00 | 0.00 | 0.00 | 75 | 1013.5 |
| 20260507212926 | 25 | 82 | 14.5 | 25.7 | 0.00 | 0.00 | 0.00 | 74 | 1013.4 |
| 20260507212246 | 26 | 82 | 9.7 | 25.7 | 0.00 | 0.00 | 0.00 | 75 | 1013.4 |
| 20260507211606 | -17 | 81 | 14.5 | 22.5 | 0.00 | 0.00 | 0.00 | ||
| 20260507210712 | -17 | 81 | 11.3 | 9.7 | 0.00 | 0.00 | 0.00 | ||
| 20260507204428 | 25 | 82 | 9.7 | 25.7 | 0.00 | 0.00 | 0.00 | 74 | 1013.5 |
| 20260507203748 | 25 | 81 | 6.4 | 16.1 | 0.00 | 0.00 | 0.00 | 73 | 1013.6 |
| 20260507203108 | -17 | 71 | 4.8 | 6.4 | 0.00 | 0.00 | 0.00 | ||
| 20260507201253 | -17 | 82 | 9.7 | 11.3 | 0.00 | 0.00 | 0.00 | ||
| 20260507200141 | 25 | 82 | 8.0 | 17.7 | 0.00 | 0.00 | 0.00 | 76 | 1013.8 |
| 20260507195501 | 24 | 57 | 1.6 | 16.1 | 0.00 | 0.00 | 0.00 | 77 | 1013.9 |
| 20260507194821 | 24 | 82 | 9.7 | 17.7 | 0.00 | 0.00 | 0.00 | 78 | 1014.1 |
| 20260507194141 | -17 | 82 | 9.7 | 6.4 | 0.00 | 0.00 | 0.00 | ||
| 20260507192930 | -17 | 81 | 9.7 | 6.4 | 0.00 | 0.00 | 0.00 | ||
| 20260507192004 | 23 | 81 | 9.7 | 14.5 | 0.00 | 0.00 | 0.00 | 78 | 1014.4 |
| 20260507191324 | 23 | 79 | 4.8 | 17.7 | 0.00 | 0.00 | 0.00 | 80 | 1014.3 |
| 20260507190644 | -17 | 80 | 6.4 | 9.7 | 0.00 | 0.00 | 0.00 | ||
| 20260507185750 | -17 | 70 | 4.8 | 0.0 | 0.00 | 0.00 | 0.00 | ||
| 20260507184857 | 23 | 81 | 9.7 | 17.7 | 0.00 | 0.00 | 0.00 | 81 | 1014.6 |
| 20260507184217 | -17 | 75 | 4.8 | 6.4 | 0.00 | 0.00 | 0.00 | ||
| 20260507183324 | -17 | 81 | 8.0 | 6.4 | 0.00 | 0.00 | 0.00 | ||
| 20260507181859 | 22 | 81 | 11.3 | 16.1 | 0.00 | 0.00 | 0.00 | 80 | 1014.7 |
| 20260507181219 | 22 | 81 | 8.0 | 14.5 | 0.00 | 0.00 | 0.00 | 81 | 1014.8 |
| 20260507180539 | 22 | 80 | 6.4 | 20.9 | 0.00 | 0.00 | 0.00 | 82 | 1014.6 |
| 20260507175859 | 22 | 81 | 11.3 | 20.9 | 0.00 | 0.00 | 0.00 | 80 | 1014.8 |
| 20260507175219 | 22 | 62 | 3.2 | 17.7 | 0.00 | 0.00 | 0.00 | 82 | 1014.9 |
| 20260507174539 | 22 | 82 | 8.0 | 14.5 | 0.00 | 0.00 | 0.00 | 83 | 1015.0 |
| 20260507173859 | -17 | 81 | 8.0 | 6.4 | 0.00 | 0.00 | 0.00 | ||
| 20260507172439 | 21 | 81 | 8.0 | 16.1 | 0.00 | 0.00 | 0.00 | 85 | 1015.0 |
| 20260507171759 | 21 | 82 | 8.0 | 16.1 | 0.00 | 0.00 | 0.00 | 86 | 1015.0 |
| 20260507171119 | -17 | 81 | 9.7 | 8.0 | 0.00 | 0.00 | 0.00 | ||
| 20260507170224 | -17 | 82 | 11.3 | 4.8 | 0.00 | 0.00 | 0.00 | ||
| 20260507165329 | -17 | 81 | 9.7 | 9.7 | 0.00 | 0.00 | 0.00 | ||
| 20260507164219 | 19 | 81 | 12.9 | 19.3 | 0.00 | 0.00 | 0.00 | 93 | 1015.1 |
| 20260507163539 | 19 | 81 | 9.7 | 17.7 | 0.00 | 0.00 | 0.00 | 93 | 1015.3 |
| 20260507162859 | -17 | 81 | 16.1 | 12.9 | 0.00 | 0.00 | 0.00 | ||
| 20260507161933 | -17 | 81 | 11.3 | 12.9 | 0.00 | 0.00 | 0.00 | ||
| 20260507160255 | -17 | 81 | 12.9 | 14.5 | 0.00 | 0.00 | 0.00 | ||
| 20260507155400 | -17 | 81 | 11.3 | 9.7 | 0.00 | 0.00 | 0.00 | ||
| 20260507154006 | 19 | 81 | 9.7 | 16.1 | 0.00 | 0.00 | 0.00 | 96 | 1015.3 |
| 20260507153325 | -17 | 82 | 6.4 | 4.8 | 0.00 | 0.00 | 0.00 | ||
| 20260507152430 | -17 | 81 | 9.7 | 4.8 | 0.00 | 0.00 | 0.00 | ||
| 20260507151535 | 19 | 81 | 9.7 | 17.7 | 0.00 | 0.00 | 0.00 | 96 | 1015.3 |
| 20260507150855 | -17 | 81 | 12.9 | 11.3 | 0.00 | 0.00 | 0.00 | ||
| 20260507150000 | -17 | 81 | 9.7 | 8.0 | 0.00 | 0.00 | 0.00 | ||
| 20260507145105 | -17 | 81 | 8.0 | 14.5 | 0.00 | 0.00 | 0.00 | ||
| 20260507144210 | -17 | 81 | 12.9 | 11.3 | 0.00 | 0.00 | 0.00 | ||
| 20260507143246 | -17 | 81 | 14.5 | 6.4 | 0.00 | 0.00 | 0.00 | ||
| 20260507142106 | -17 | 80 | 11.3 | 11.3 | 0.00 | 0.00 | 0.00 | ||
| 20260507135951 | 20 | 82 | 9.7 | 17.7 | 0.00 | 0.00 | 0.00 | 96 | 1015.0 |
| 20260507135311 | 20 | 82 | 6.4 | 12.9 | 0.00 | 0.00 | 0.00 | 96 | 1014.9 |
| 20260507134631 | 20 | 81 | 6.4 | 14.5 | 0.00 | 0.00 | 0.00 | 96 | 1014.8 |
| 20260507133951 | 20 | 82 | 8.0 | 14.5 | 0.00 | 0.00 | 0.00 | 96 | 1015.0 |
| 20260507133311 | 20 | 82 | 9.7 | 16.1 | 0.00 | 0.00 | 0.00 | 96 | 1014.8 |
| 20260507132631 | -17 | 81 | 11.3 | 12.9 | 0.00 | 0.00 | 0.00 | ||
| 20260507131521 | -17 | 81 | 14.5 | 11.3 | 0.00 | 0.00 | 0.00 | ||
| 20260507125620 | -17 | 81 | 12.9 | 12.9 | 0.00 | 0.00 | 0.00 | ||
| 20260507124727 | -17 | 81 | 12.9 | 14.5 | 0.00 | 0.00 | 0.00 | ||
| 20260507123832 | 21 | 81 | 8.0 | 17.7 | 0.00 | 0.00 | 0.00 | 97 | 1014.4 |
| 20260507123152 | 21 | 65 | 3.2 | 6.4 | 0.00 | 0.00 | 0.00 | 97 | 1014.1 |
| 20260507122512 | -17 | 55 | 1.6 | 3.2 | 0.00 | 0.00 | 0.00 | ||
| 20260507121149 | -17 | 53 | 1.6 | 1.6 | 0.00 | 0.00 | 0.00 | ||
| 20260507120225 | -17 | 71 | 3.2 | 3.2 | 0.00 | 0.00 | 0.00 | ||
| 20260507115119 | -17 | 44 | 3.2 | 6.4 | 0.00 | 0.00 | 0.00 | ||
| 20260507114225 | -17 | 25 | 1.6 | 1.6 | 0.00 | 0.00 | 0.00 | ||
| 20260507113116 | 22 | 74 | 4.8 | 11.3 | 0.00 | 0.00 | 0.00 | 95 | 1013.1 |
| 20260507112436 | -17 | 75 | 3.2 | 6.4 | 0.00 | 0.00 | 0.00 | ||
| 20260507111541 | -17 | 72 | 3.2 | 1.6 | 0.00 | 0.00 | 0.00 | ||
| 20260507105959 | 25 | 259 | 6.4 | 9.7 | 0.00 | 0.00 | 0.00 | 93 | 1012.4 |
| 20260507105319 | 25 | 259 | 6.4 | 12.9 | 0.00 | 0.00 | 0.00 | 93 | 1012.3 |
| 20260507104639 | 25 | 259 | 8.0 | 12.9 | 0.00 | 0.00 | 0.00 | 93 | 1012.1 |
| 20260507103959 | -17 | 259 | 6.4 | 3.2 | 0.00 | 0.00 | 0.00 | ||
| 20260507102847 | -17 | 259 | 6.4 | 3.2 | 0.00 | 0.00 | 0.00 | ||
| 20260507101736 | -17 | 259 | 11.3 | 14.5 | 0.00 | 0.00 | 0.00 | ||
| 20260507100843 | 25 | 258 | 6.4 | 14.5 | 0.00 | 0.00 | 0.00 | 92 | 1011.9 |
| 20260507100203 | -17 | 259 | 8.0 | 12.9 | 0.00 | 0.00 | 0.00 | ||
| 20260507095310 | 25 | 260 | 11.3 | 19.3 | 0.00 | 0.00 | 0.00 | 92 | 1011.7 |
| 20260507094630 | 25 | 259 | 9.7 | 16.1 | 0.00 | 0.00 | 0.00 | 91 | 1011.7 |
| 20260507093950 | -17 | 260 | 8.0 | 9.7 | 0.00 | 0.00 | 0.00 | ||
| 20260507092845 | 25 | 260 | 6.4 | 12.9 | 0.00 | 0.00 | 0.00 | 91 | 1011.7 |
| 20260507092202 | -17 | 256 | 6.4 | 6.4 | 0.00 | 0.00 | 0.00 | ||
| 20260507090640 | 25 | 259 | 9.7 | 16.1 | 0.00 | 0.00 | 0.00 | 91 | 1011.5 |
| 20260507090000 | 25 | 260 | 9.7 | 14.5 | 0.00 | 0.00 | 0.00 | 91 | 1011.5 |
| 20260507085320 | -17 | 260 | 8.0 | 8.0 | 0.00 | 0.00 | 0.00 | ||
| 20260507084427 | 25 | 260 | 6.4 | 16.1 | 0.00 | 0.00 | 0.00 | 91 | 1011.5 |
| 20260507083747 | 25 | 260 | 9.7 | 24.1 | 0.00 | 0.00 | 0.00 | 91 | 1011.5 |
| 20260507083107 | -17 | 260 | 9.7 | 12.9 | 0.00 | 0.00 | 0.00 |